Location: Winthrop
(48.4780°N, 120.1850°W)
Time: 02:57:38
(UTC-08:00)

Vanguard 1 Rocket - Pass Details

Date: 06 December 2023
Orbit: 654 x 4218 km, 34.3° (Epoch: 24 February)

Event Time Altitude Azimuth Distance (km) Brightness Sun altitude
Rises 09:43:16 0° 271° (W) 6,458 11.4 13.4°
Reaches altitude 10° 09:49:23 10° 260° (W) 4,731 10.9 13.9°
Maximum altitude 09:57:35 22° 217° (SW) 2,870 10.4 14.5°
Drops below altitude 10° 10:03:03 10° 169° (S) 2,998 12.0 14.9°
Sets 10:05:52 0° 152° (SSE) 3,621 12.4 15.1°
